Time,TemperatureF,DewpointF,PressureIn,WindDirection,WindDirectionDegrees,WindSpeedMPH,WindSpeedGustMPH,Humidity,HourlyPrecipIn,Conditions,Clouds,dailyrainin,SolarRadiationWatts/m^2,SoftwareType,DateUTC
2013-02-15 00:01:00,39.0,18.0,-100.00,North,2,18.0,24.0,43,0.00,,,0.00,2.000000,,2013-02-15 08:01:00,
2013-02-15 00:11:00,39.0,18.0,-100.00,North,2,18.0,24.0,43,0.00,,,0.00,2.000000,,2013-02-15 08:11:00,
2013-02-15 00:42:00,38.0,18.0,-100.00,North,2,15.0,27.0,44,0.00,,,0.00,2.000000,,2013-02-15 08:42:00,
2013-02-15 00:53:00,38.0,18.0,-100.00,North,2,15.0,27.0,44,0.00,,,0.00,2.000000,,2013-02-15 08:53:00,
2013-02-15 01:01:00,38.0,18.0,-100.00,North,2,15.0,27.0,44,0.00,,,0.00,2.000000,,2013-02-15 09:01:00,
2013-02-15 01:12:00,38.0,18.0,-100.00,North,2,15.0,27.0,44,0.00,,,0.00,2.000000,,2013-02-15 09:12:00,
2013-02-15 01:42:00,40.0,15.0,-100.00,North,2,22.0,32.0,36,0.00,,,0.00,2.000000,,2013-02-15 09:42:00,
2013-02-15 01:52:00,40.0,15.0,-100.00,North,2,22.0,32.0,36,0.00,,,0.00,2.000000,,2013-02-15 09:52:00,
2013-02-15 02:01:00,40.0,15.0,-100.00,North,2,22.0,32.0,36,0.00,,,0.00,2.000000,,2013-02-15 10:01:00,
2013-02-15 02:11:00,40.0,15.0,-100.00,North,2,22.0,32.0,36,0.00,,,0.00,2.000000,,2013-02-15 10:11:00,
2013-02-15 02:42:00,39.0,14.0,-100.00,North,2,20.0,30.0,36,0.00,,,0.00,2.000000,,2013-02-15 10:42:00,
2013-02-15 02:52:00,39.0,14.0,-100.00,North,2,20.0,30.0,36,0.00,,,0.00,2.000000,,2013-02-15 10:52:00,
2013-02-15 03:01:00,39.0,14.0,-100.00,North,2,20.0,30.0,36,0.00,,,0.00,2.000000,,2013-02-15 11:01:00,
2013-02-15 03:11:00,39.0,14.0,-100.00,North,2,20.0,30.0,36,0.00,,,0.00,2.000000,,2013-02-15 11:11:00,
2013-02-15 03:42:00,38.0,15.0,-100.00,North,2,20.0,29.0,39,0.00,,,0.00,2.000000,,2013-02-15 11:42:00,
2013-02-15 03:52:00,38.0,15.0,-100.00,North,2,20.0,29.0,39,0.00,,,0.00,2.000000,,2013-02-15 11:52:00,
2013-02-15 04:01:00,38.0,15.0,-100.00,North,2,20.0,29.0,39,0.00,,,0.00,2.000000,,2013-02-15 12:01:00,
2013-02-15 04:11:00,38.0,15.0,-100.00,North,2,20.0,29.0,39,0.00,,,0.00,2.000000,,2013-02-15 12:11:00,
2013-02-15 04:42:00,37.0,16.0,-100.00,North,2,20.0,29.0,42,0.00,,,0.00,2.000000,,2013-02-15 12:42:00,
2013-02-15 04:52:00,37.0,16.0,-100.00,North,2,20.0,29.0,42,0.00,,,0.00,2.000000,,2013-02-15 12:52:00,
2013-02-15 05:02:00,37.0,16.0,-100.00,North,2,20.0,29.0,42,0.00,,,0.00,2.000000,,2013-02-15 13:02:00,
2013-02-15 05:11:00,37.0,16.0,-100.00,North,2,20.0,29.0,42,0.00,,,0.00,2.000000,,2013-02-15 13:11:00,
2013-02-15 05:42:00,37.0,15.0,-100.00,North,2,18.0,28.0,40,0.00,,,0.00,2.000000,,2013-02-15 13:42:00,
2013-02-15 05:52:00,37.0,15.0,-100.00,North,2,18.0,28.0,40,0.00,,,0.00,2.000000,,2013-02-15 13:52:00,
2013-02-15 06:01:00,37.0,15.0,-100.00,North,2,18.0,28.0,40,0.00,,,0.00,2.000000,,2013-02-15 14:01:00,
2013-02-15 06:11:00,37.0,15.0,-100.00,North,2,18.0,28.0,40,0.00,,,0.00,2.000000,,2013-02-15 14:11:00,
2013-02-15 06:42:00,36.0,13.0,-100.00,North,2,20.0,31.0,39,0.00,,,0.00,2.000000,,2013-02-15 14:42:00,
2013-02-15 06:52:00,36.0,13.0,-100.00,North,2,20.0,31.0,39,0.00,,,0.00,2.000000,,2013-02-15 14:52:00,
2013-02-15 07:01:00,36.0,13.0,-100.00,North,2,20.0,31.0,39,0.00,,,0.00,2.000000,,2013-02-15 15:01:00,
2013-02-15 07:11:00,36.0,13.0,-100.00,North,2,20.0,31.0,39,0.00,,,0.00,2.000000,,2013-02-15 15:11:00,
2013-02-15 07:42:00,40.0,12.0,-100.00,North,2,22.0,36.0,31,0.00,,,0.00,28.000000,,2013-02-15 15:42:00,
2013-02-15 07:52:00,40.0,12.0,-100.00,North,2,22.0,36.0,31,0.00,,,0.00,28.000000,,2013-02-15 15:52:00,
2013-02-15 08:01:00,40.0,12.0,-100.00,North,2,22.0,36.0,31,0.00,,,0.00,28.000000,,2013-02-15 16:01:00,
2013-02-15 08:11:00,40.0,12.0,-100.00,North,2,22.0,36.0,31,0.00,,,0.00,28.000000,,2013-02-15 16:11:00,
2013-02-15 08:43:00,43.0,10.0,-100.00,North,2,20.0,40.0,25,0.00,,,0.00,242.000000,,2013-02-15 16:43:00,
2013-02-15 08:52:00,43.0,10.0,-100.00,North,2,20.0,40.0,25,0.00,,,0.00,242.000000,,2013-02-15 16:52:00,
2013-02-15 09:01:00,43.0,10.0,-100.00,North,2,20.0,40.0,25,0.00,,,0.00,242.000000,,2013-02-15 17:01:00,
2013-02-15 09:11:00,43.0,10.0,-100.00,North,2,20.0,40.0,25,0.00,,,0.00,242.000000,,2013-02-15 17:11:00,
2013-02-15 09:32:00,46.0,10.0,-100.00,North,2,20.0,34.0,23,0.00,,,0.00,475.000000,,2013-02-15 17:32:00,
2013-02-15 09:42:00,46.0,10.0,-100.00,North,2,20.0,34.0,23,0.00,,,0.00,475.000000,,2013-02-15 17:42:00,
2013-02-15 09:52:00,46.0,10.0,-100.00,North,2,20.0,34.0,23,0.00,,,0.00,475.000000,,2013-02-15 17:52:00,
2013-02-15 10:01:00,46.0,10.0,-100.00,North,2,20.0,34.0,23,0.00,,,0.00,475.000000,,2013-02-15 18:01:00,
2013-02-15 10:11:00,46.0,10.0,-100.00,North,2,20.0,34.0,23,0.00,,,0.00,475.000000,,2013-02-15 18:11:00,
2013-02-15 10:42:00,48.0,11.0,-100.00,North,1,16.0,25.0,22,0.00,,,-99.99,673.000000,,2013-02-15 18:42:00,
2013-02-15 10:52:00,48.0,11.0,-100.00,North,1,16.0,25.0,22,0.00,,,-99.99,673.000000,,2013-02-15 18:52:00,
2013-02-15 11:01:00,48.0,11.0,-100.00,North,1,16.0,25.0,22,0.00,,,-99.99,673.000000,,2013-02-15 19:01:00,
2013-02-15 11:11:00,48.0,11.0,-100.00,North,1,16.0,25.0,22,0.00,,,-99.99,673.000000,,2013-02-15 19:11:00,
2013-02-15 11:42:00,52.0,12.0,-100.00,North,1,15.0,23.0,20,0.00,,,0.00,815.000000,,2013-02-15 19:42:00,
2013-02-15 11:52:00,52.0,12.0,-100.00,North,1,15.0,23.0,20,0.00,,,0.00,815.000000,,2013-02-15 19:52:00,
2013-02-15 12:01:00,52.0,12.0,-100.00,North,1,15.0,23.0,20,0.00,,,0.00,815.000000,,2013-02-15 20:01:00,
2013-02-15 12:11:00,52.0,12.0,-100.00,North,1,15.0,23.0,20,0.00,,,0.00,815.000000,,2013-02-15 20:11:00,
2013-02-15 12:42:00,54.0,15.0,-100.00,North,1,11.0,21.0,21,0.00,,,0.00,883.000000,,2013-02-15 20:42:00,
2013-02-15 12:52:00,54.0,15.0,-100.00,North,1,11.0,21.0,21,0.00,,,0.00,883.000000,,2013-02-15 20:52:00,
2013-02-15 13:01:00,54.0,15.0,-100.00,North,1,11.0,21.0,21,0.00,,,0.00,883.000000,,2013-02-15 21:01:00,
2013-02-15 13:11:00,54.0,15.0,-100.00,North,1,11.0,21.0,21,0.00,,,0.00,883.000000,,2013-02-15 21:11:00,
2013-02-15 13:42:00,55.0,15.0,-100.00,North,1,9.0,17.0,20,0.00,,,0.00,860.000000,,2013-02-15 21:42:00,
2013-02-15 13:52:00,55.0,15.0,-100.00,North,1,9.0,17.0,20,0.00,,,0.00,860.000000,,2013-02-15 21:52:00,
2013-02-15 14:02:00,55.0,15.0,-100.00,North,1,9.0,17.0,20,0.00,,,0.00,860.000000,,2013-02-15 22:02:00,
2013-02-15 14:11:00,55.0,15.0,-100.00,North,1,9.0,17.0,20,0.00,,,0.00,860.000000,,2013-02-15 22:11:00,
2013-02-15 14:42:00,57.0,21.0,-100.00,North,1,3.0,11.0,24,0.00,,,0.00,742.000000,,2013-02-15 22:42:00,
2013-02-15 14:52:00,57.0,21.0,-100.00,North,1,3.0,11.0,24,0.00,,,0.00,742.000000,,2013-02-15 22:52:00,
2013-02-15 15:02:00,57.0,21.0,-100.00,North,1,3.0,11.0,24,0.00,,,0.00,742.000000,,2013-02-15 23:02:00,
2013-02-15 15:11:00,57.0,21.0,-100.00,North,1,3.0,11.0,24,0.00,,,0.00,742.000000,,2013-02-15 23:11:00,
2013-02-15 15:32:00,56.0,19.0,-100.00,North,1,5.0,9.0,23,0.00,,,0.00,645.000000,,2013-02-15 23:32:00,
2013-02-15 15:42:00,56.0,19.0,-100.00,North,1,5.0,9.0,23,0.00,,,0.00,645.000000,,2013-02-15 23:42:00,
2013-02-15 15:52:00,56.0,19.0,-100.00,North,1,5.0,9.0,23,0.00,,,0.00,645.000000,,2013-02-15 23:52:00,
2013-02-15 16:02:00,56.0,19.0,-100.00,North,1,5.0,9.0,23,0.00,,,0.00,645.000000,,2013-02-16 00:02:00,
2013-02-15 16:11:00,56.0,19.0,-100.00,North,1,5.0,9.0,23,0.00,,,0.00,645.000000,,2013-02-16 00:11:00,
2013-02-15 16:42:00,51.0,14.0,-100.00,North,1,4.0,11.0,22,0.00,,,0.00,375.000000,,2013-02-16 00:42:00,
2013-02-15 16:52:00,51.0,14.0,-100.00,North,1,4.0,11.0,22,0.00,,,0.00,375.000000,,2013-02-16 00:52:00,
2013-02-15 17:02:00,51.0,14.0,-100.00,North,1,4.0,11.0,22,0.00,,,0.00,375.000000,,2013-02-16 01:02:00,
2013-02-15 17:11:00,51.0,14.0,-100.00,North,1,4.0,11.0,22,0.00,,,0.00,375.000000,,2013-02-16 01:11:00,
2013-02-15 17:42:00,44.0,10.0,-100.00,North,1,4.0,8.0,25,0.00,,,0.00,132.000000,,2013-02-16 01:42:00,
2013-02-15 17:52:00,44.0,10.0,-100.00,North,1,4.0,8.0,25,0.00,,,0.00,132.000000,,2013-02-16 01:52:00,
2013-02-15 18:01:00,44.0,10.0,-100.00,North,1,4.0,8.0,25,0.00,,,0.00,132.000000,,2013-02-16 02:01:00,
2013-02-15 18:11:00,44.0,10.0,-100.00,North,1,4.0,8.0,25,0.00,,,0.00,132.000000,,2013-02-16 02:11:00,
2013-02-15 18:42:00,42.0,8.0,-100.00,North,2,5.0,10.0,24,0.00,,,0.00,6.000000,,2013-02-16 02:42:00,
2013-02-15 18:52:00,42.0,8.0,-100.00,North,2,5.0,10.0,24,0.00,,,0.00,6.000000,,2013-02-16 02:52:00,
2013-02-15 19:01:00,42.0,8.0,-100.00,North,2,5.0,10.0,24,0.00,,,0.00,6.000000,,2013-02-16 03:01:00,
2013-02-15 19:11:00,42.0,8.0,-100.00,North,2,5.0,10.0,24,0.00,,,0.00,6.000000,,2013-02-16 03:11:00,
2013-02-15 19:42:00,42.0,2.0,-100.00,North,2,7.0,11.0,18,0.00,,,0.00,2.000000,,2013-02-16 03:42:00,
2013-02-15 19:52:00,42.0,2.0,-100.00,North,2,7.0,11.0,18,0.00,,,0.00,2.000000,,2013-02-16 03:52:00,
2013-02-15 20:01:00,42.0,2.0,-100.00,North,2,7.0,11.0,18,0.00,,,0.00,2.000000,,2013-02-16 04:01:00,
2013-02-15 20:11:00,42.0,2.0,-100.00,North,2,7.0,11.0,18,0.00,,,0.00,2.000000,,2013-02-16 04:11:00,
2013-02-15 20:42:00,44.0,-4.0,-100.00,North,2,5.0,11.0,13,0.00,,,0.00,2.000000,,2013-02-16 04:42:00,
2013-02-15 20:52:00,44.0,-4.0,-100.00,North,2,5.0,11.0,13,0.00,,,0.00,2.000000,,2013-02-16 04:52:00,
2013-02-15 21:01:00,44.0,-4.0,-100.00,North,2,5.0,11.0,13,0.00,,,0.00,2.000000,,2013-02-16 05:01:00,
2013-02-15 21:11:00,44.0,-4.0,-100.00,North,2,5.0,11.0,13,0.00,,,0.00,2.000000,,2013-02-16 05:11:00,
2013-02-15 21:42:00,43.0,-3.0,-100.00,North,2,5.0,10.0,14,0.00,,,0.00,2.000000,,2013-02-16 05:42:00,
2013-02-15 21:52:00,43.0,-3.0,-100.00,North,2,5.0,10.0,14,0.00,,,0.00,2.000000,,2013-02-16 05:52:00,
2013-02-15 22:01:00,43.0,-3.0,-100.00,North,2,5.0,10.0,14,0.00,,,0.00,2.000000,,2013-02-16 06:01:00,
2013-02-15 22:11:00,43.0,-3.0,-100.00,North,2,5.0,10.0,14,0.00,,,0.00,2.000000,,2013-02-16 06:11:00,
2013-02-15 22:42:00,43.0,-4.0,-100.00,North,2,7.0,11.0,13,0.00,,,-99.99,2.000000,,2013-02-16 06:42:00,
2013-02-15 22:52:00,43.0,-4.0,-100.00,North,2,7.0,11.0,13,0.00,,,-99.99,2.000000,,2013-02-16 06:52:00,
2013-02-15 23:02:00,43.0,-4.0,-100.00,North,2,7.0,11.0,13,0.00,,,-99.99,2.000000,,2013-02-16 07:02:00,
2013-02-15 23:11:00,43.0,-4.0,-100.00,North,2,7.0,11.0,13,0.00,,,-99.99,2.000000,,2013-02-16 07:11:00,
2013-02-15 23:42:00,42.0,-7.0,-100.00,North,2,7.0,10.0,12,0.00,,,0.00,2.000000,,2013-02-16 07:42:00,
2013-02-15 23:53:00,42.0,-7.0,-100.00,North,2,7.0,10.0,12,0.00,,,0.00,2.000000,,2013-02-16 07:53:00,